GW2451 Weather Reports


time (UTC)temp
C
wind
direction
speed
KPH
gust
KPH
rain 1hr
cm
rain 24hr
cm
rain mn
cm
humidity
%
barometer
mb
20260508094545 6 0 0.0 0.0 0.00 0.00 0.00 82 1011.6
20260508093053 6 0 0.0 0.0 0.00 0.00 0.00 81 1011.6
20260508091552 7 0 0.0 1.6 0.00 0.00 0.00 80 1011.7
20260508090042 7 211 0.0 3.2 0.00 0.00 0.00 80 1011.8
20260508084545 7 0 0.0 1.6 0.00 0.00 0.00 78 1011.9
20260508083105 7 0 0.0 0.0 0.00 0.00 0.00 77 1012.0
20260508081551 7 0 0.0 0.0 0.00 0.00 0.00 77 1012.0
20260508080054 8 0 0.0 1.6 0.00 0.00 0.00 76 1012.0
20260508074550 8 0 0.0 3.2 0.00 0.00 0.00 75 1012.0
20260508073044 8 0 0.0 4.8 0.00 0.00 0.00 74 1012.0
20260508071543 8 255 1.6 4.8 0.00 0.00 0.00 72 1012.1
20260508070043 8 0 1.6 4.8 0.00 0.00 0.00 71 1012.2
20260508064544 8 258 1.6 3.2 0.00 0.00 0.00 70 1012.1
20260508063042 8 0 0.0 1.6 0.00 0.00 0.00 70 1012.0
20260508061543 8 0 0.0 1.6 0.00 0.00 0.00 70 1012.2
20260508060042 8 0 0.0 0.0 0.00 0.00 0.00 71 1012.2
20260508054545 8 0 0.0 0.0 0.00 0.00 0.00 71 1012.2
20260508053045 8 0 0.0 0.0 0.00 0.00 0.00 70 1012.4
20260508051541 8 0 0.0 0.0 0.00 0.00 0.00 70 1012.5
20260508050042 8 0 0.0 0.0 0.00 0.00 0.00 70 1012.7
20260508044545 8 0 0.0 0.0 0.00 0.00 0.00 70 1012.7
20260508043046 7 0 0.0 0.0 0.00 0.00 0.00 70 1012.6
20260508041544 7 0 0.0 0.0 0.00 0.00 0.00 71 1012.6
20260508040044 7 0 0.0 0.0 0.00 0.00 0.00 72 1012.7
20260508034547 7 0 0.0 3.2 0.00 0.00 0.00 72 1012.6
20260508033048 6 0 0.0 1.6 0.00 0.00 0.00 73 1012.8
20260508031545 6 0 0.0 0.0 0.00 0.00 0.00 75 1012.9
20260508030046 6 0 0.0 1.6 0.00 0.00 0.00 74 1012.9
20260508024541 6 0 0.0 0.0 0.00 0.00 0.00 72 1012.9
20260508023040 6 0 0.0 0.0 0.00 0.00 0.00 69 1012.9
20260508021549 7 0 0.0 0.0 0.00 0.00 0.00 67 1012.8
20260508020045 7 0 0.0 0.0 0.00 0.00 0.00 65 1012.7
20260508014543 8 0 0.0 0.0 0.00 0.00 0.00 62 1012.5
20260508013049 8 0 0.0 1.6 0.00 0.00 0.00 61 1012.4
20260508011547 9 0 0.0 0.0 0.00 0.00 0.00 57 1012.3
20260508010050 10 0 0.0 0.0 0.00 0.00 0.00 53 1012.3
20260508004546 10 0 0.0 0.0 0.00 0.00 0.00 50 1012.3
20260508003043 10 0 0.0 0.0 0.00 0.00 0.00 47 1012.3
20260508001542 11 0 0.0 1.6 0.00 0.00 0.00 47 1012.2
20260508000051 11 0 0.0 3.2 0.00 0.00 0.00 46 1012.1
20260507234545 11 312 1.6 8.0 0.00 0.00 0.00 45 1012.1
20260507233045 11 0 1.6 12.9 0.00 0.00 0.00 44 1011.9
20260507231547 11 276 3.2 16.1 0.00 0.00 0.00 44 1011.9
20260507230048 12 249 3.2 9.7 0.00 0.00 0.00 43 1012.0
20260507224548 12 277 3.2 12.9 0.00 0.00 0.00 43 1012.1
20260507223046 12 294 1.6 8.0 0.00 0.00 0.00 44 1012.0
20260507221547 12 283 3.2 12.9 0.00 0.00 0.00 42 1012.1
20260507220049 12 319 4.8 17.7 0.00 0.00 0.00 41 1012.0
20260507214605 12 301 3.2 22.5 0.00 0.00 0.00 41 1011.9
20260507213046 12 324 4.8 16.1 0.00 0.00 0.00 43 1011.8
20260507211551 12 34 4.8 17.7 0.00 0.00 0.00 48 1011.8
20260507210052 12 269 6.4 14.5 0.00 0.00 0.00 50 1011.8
20260507204541 12 333 3.2 12.9 0.00 0.00 0.00 52 1011.6
20260507203050 11 198 3.2 12.9 0.00 0.00 0.00 53 1011.7
20260507201545 11 265 1.6 9.7 0.00 0.00 0.00 54 1011.7
20260507200044 12 260 3.2 12.9 0.00 0.00 0.00 52 1011.7
20260507194612 12 274 3.2 16.1 0.00 0.00 0.00 51 1011.6
20260507193049 13 227 1.6 8.0 0.00 0.00 0.00 48 1011.7
20260507191547 13 271 1.6 9.7 0.00 0.00 0.00 46 1011.7
20260507190041 13 272 3.2 12.9 0.00 0.00 0.00 45 1011.9
20260507184548 13 329 1.6 6.4 0.00 0.00 0.00 51 1011.8
20260507183045 13 267 1.6 8.0 0.00 0.00 0.00 50 1011.8
20260507181543 13 0 1.6 12.9 0.00 0.00 0.00 53 1011.9
20260507180042 13 342 1.6 9.7 0.00 0.00 0.00 53 1011.9
20260507174550 13 333 1.6 6.4 0.00 0.00 0.00 50 1012.0
20260507173044 13 115 1.6 6.4 0.00 0.00 0.00 48 1012.1
20260507171550 13 259 3.2 12.9 0.00 0.00 0.00 45 1012.1
20260507170044 13 169 1.6 8.0 0.00 0.00 0.00 47 1012.2
20260507164543 13 90 4.8 11.3 0.00 0.00 0.00 51 1012.2
20260507163043 12 0 1.6 6.4 0.00 0.00 0.00 51 1012.3
20260507161549 12 321 1.6 6.4 0.00 0.00 0.00 54 1012.4
20260507160048 12 0 1.6 4.8 0.00 0.00 0.00 54 1012.6
20260507154546 13 262 1.6 4.8 0.00 0.00 0.00 48 1012.4
20260507153046 13 313 1.6 11.3 0.00 0.00 0.00 50 1012.3
20260507151547 13 262 1.6 6.4 0.00 0.00 0.00 49 1012.4
20260507150053 13 267 1.6 8.0 0.00 0.00 0.00 52 1012.5
20260507144543 13 283 1.6 6.4 0.00 0.00 0.00 55 1012.3
20260507143100 13 341 1.6 4.8 0.00 0.00 0.00 54 1012.4
20260507141552 13 311 0.0 4.8 0.00 0.00 0.00 57 1012.5
20260507140040 12 61 3.2 8.0 0.00 0.00 0.00 58 1012.5
20260507134544 12 126 0.0 6.4 0.00 0.00 0.00 65 1012.7
20260507133044 11 260 0.0 8.0 0.00 0.00 0.00 67 1012.9
20260507131603 10 181 0.0 4.8 0.00 0.00 0.00 70 1013.0
20260507130042 9 0 0.0 3.2 0.00 0.00 0.00 72 1012.9
20260507124545 8 0 0.0 6.4 0.00 0.00 0.00 76 1012.9
20260507123044 7 0 0.0 3.2 0.00 0.00 0.00 79 1012.9
20260507121544 6 0 0.0 3.2 0.00 0.00 0.00 83 1012.8
20260507120042 6 0 0.0 3.2 0.00 0.00 0.00 86 1012.7
20260507114545 5 0 1.6 8.0 0.00 0.00 0.00 90 1012.8
20260507113040 4 0 0.0 3.2 0.00 0.00 0.00 90 1012.5
20260507111547 4 0 0.0 0.0 0.00 0.00 0.00 89 1012.5
20260507110044 4 0 0.0 1.6 0.00 0.00 0.00 89 1012.4
20260507104544 4 0 0.0 0.0 0.00 0.00 0.00 89 1012.2
20260507103041 4 0 0.0 0.0 0.00 0.00 0.00 89 1012.0
20260507101544 4 0 0.0 0.0 0.00 0.00 0.00 89 1012.1
20260507100049 4 0 0.0 0.0 0.00 0.00 0.00 89 1012.1